NOAA 18

Last updated on Fri Aug 22 2025 00:02:21 GMT+0000 (Coordinated Universal Time)

1 28654U 05018A 25232.88830689 .00000072 00000+0 61789-4 0 9996 2 28654 98.8395 311.5431 0013143 285.1851 74.7868 14.13628502 43884
UTC large
Height (km)
Speed (km/s)
/
Latitude / Longitude
Inclination (degrees)
Orbital Period (minutes)
Azimuth
Elevation
Range (km)
Doppler Factor

Next 0 passes for location: London (51.5072 / 0.1276)

Sorry there are no passes over London.
NOAA 18